Mt Hood
Timberline - Magic Mile Chair
Latest observation 09/03 18:00 PDT
| Time (PDT) | Temp °F 6990' | RH % 6990' | Min mph 6990' | Spd mph 6990' | Gust mph 6990' | Dir ° 6990' |
|---|---|---|---|---|---|---|
| 09/03 18:00 | 36 | 94 | 0 | 4 | 11 | 87 |
| 09/03 17:00 | 37 | 95 | 0 | 3 | 17 | 89 |
| 09/03 16:00 | 36 | 95 | 0 | 3 | 16 | 84 |
| 09/03 15:00 | 36 | 97 | 0 | 5 | 19 | 76 |
| 09/03 14:00 | 35 | 97 | 0 | 3 | 11 | 82 |
| 09/03 13:00 | 36 | 98 | 0 | 8 | 18 | 85 |
| 09/03 12:00 | 34 | 98 | 0 | 9 | 20 | 80 |
| 09/03 11:00 | 33 | 99 | 3 | 8 | 21 | 77 |
| 09/03 10:00 | 33 | 99 | 2 | 8 | 20 | 78 |
| 09/03 09:00 | 32 | 100 | 6 | 12 | 23 | 82 |
| 09/03 08:00 | 32 | 100 | 7 | 14 | 26 | 85 |
| 09/03 07:00 | 31 | 100 | 7 | 13 | 24 | 76 |
| 09/03 06:00 | 32 | 100 | 8 | 17 | 28 | 80 |
| 09/03 05:00 | 31 | 99 | 12 | 19 | 30 | 63 |
| 09/03 04:00 | 32 | 99 | 11 | 18 | 28 | 72 |
| 09/03 03:00 | 32 | 100 | 14 | 23 | 37 | 78 |
| 09/03 02:00 | 32 | 100 | 13 | 23 | 38 | 75 |
| 09/03 01:00 | 32 | 100 | 16 | 24 | 39 | 82 |
| 09/03 00:00 | 32 | 99 | 15 | 24 | 34 | 82 |
| 09/02 23:00 | 32 | 99 | 13 | 24 | 35 | 75 |
| 09/02 22:00 | 34 | 100 | 11 | 22 | 38 | 76 |
| 09/02 21:00 | 35 | 99 | 11 | 23 | 48 | 76 |
| 09/02 20:00 | 35 | 100 | 16 | 23 | 35 | 72 |
| 09/02 19:00 | 39 | 99 | 12 | 21 | 33 | 80 |

